Simultaneous Nadir Overpasses (SNOs) Predictions

Prediction of SNOs between GOES-16 and AQUA Satellite Orbit:

Table of predicted SNOs for the next 14.0 days since TLE Epoch: 8/21/2021
Index Date Time (GOES-16) GOES-16 Lat,Lon AQUA Lat,Lon Distance(km) Time Diff (sec)
1 08/22/2021 06:17:18 -0.13, -75.23 -1.04, -70.94 487.58 80
2 08/22/2021 18:38:43 0.13, -75.25 -0.04, -76.14 101.08 80
3 08/24/2021 18:29:11 0.13, -75.31 0.58, -73.18 241.75 80
4 08/25/2021 06:50:26 -0.14, -75.32 0.51, -78.33 342.78 80
5 08/27/2021 06:35:34 -0.14, -75.39 -0.11, -75.37 3.24 80
6 08/29/2021 06:23:23 -0.14, -75.46 -0.80, -72.43 344.85 80
7 08/29/2021 18:44:47 0.15, -75.47 -0.32, -77.61 243.66 80
8 08/31/2021 18:35:15 0.15, -75.55 0.32, -74.66 100.79 80
9 09/01/2021 06:56:30 -0.15, -75.57 0.73, -79.82 483.01 80
10 09/02/2021 18:23:04 0.16, -75.62 1.02, -71.71 445.49 80
11 09/03/2021 06:44:18 -0.16, -75.65 0.09, -76.86 138.27 80
